AAL7112 KMIA-MUVR

Flight info

Callsign AAL7112
Flight time 0h 38m
Altitude 28000
Route MAYNR3 FUNDI LETOV2
Aircraft A319/M-SDE3FGHIRWY/LB1

Departure

Time 2026-05-06 17:11
Airport Miami International Airport (KMIA)

Arrival

Time 2026-05-06 17:49
Airport Juan Gualberto Gomez International Airport (MUVR)
Time Latitude Longitude Altitude Speed Heading
2026-05-06 16:43 25.79730 -80.28444 19 ft 0 kts 359°
2026-05-06 17:00 25.79712 -80.28443 19 ft 4 kts 350°
2026-05-06 17:01 25.79687 -80.28434 18 ft 4 kts 324°
2026-05-06 17:01 25.79671 -80.28413 18 ft 4 kts 276°
2026-05-06 17:01 25.79671 -80.28406 18 ft 0 kts 267°
2026-05-06 17:05 25.79670 -80.28414 18 ft 3 kts 268°
2026-05-06 17:05 25.79669 -80.28451 19 ft 7 kts 268°
2026-05-06 17:05 25.79664 -80.28515 19 ft 10 kts 262°
2026-05-06 17:06 25.79652 -80.28599 19 ft 12 kts 267°
2026-05-06 17:06 25.79645 -80.28695 20 ft 13 kts 264°
2026-05-06 17:06 25.79646 -80.28805 20 ft 15 kts 277°
2026-05-06 17:06 25.79668 -80.28921 20 ft 16 kts 290°
2026-05-06 17:07 25.79709 -80.29035 23 ft 14 kts 291°
2026-05-06 17:07 25.79790 -80.29090 21 ft 16 kts 356°
2026-05-06 17:07 25.79905 -80.29096 22 ft 18 kts 356°
2026-05-06 17:07 25.80002 -80.29148 22 ft 15 kts 276°
2026-05-06 17:08 25.79997 -80.29271 21 ft 18 kts 267°
2026-05-06 17:08 25.79991 -80.29416 15 ft 19 kts 266°
2026-05-06 17:08 25.79984 -80.29578 13 ft 22 kts 267°
2026-05-06 17:08 25.79979 -80.29725 14 ft 17 kts 267°
2026-05-06 17:09 25.79972 -80.29867 12 ft 20 kts 267°
2026-05-06 17:09 25.79987 -80.30004 12 ft 16 kts 286°
2026-05-06 17:09 25.80013 -80.30095 16 ft 10 kts 292°
2026-05-06 17:09 25.80067 -80.30108 14 ft 10 kts 51°
2026-05-06 17:10 25.80076 -80.30006 12 ft 24 kts 87°
2026-05-06 17:10 25.80093 -80.29605 14 ft 80 kts 87°
2026-05-06 17:10 25.80126 -80.28790 21 ft 131 kts 87°
2026-05-06 17:10 25.80177 -80.27620 193 ft 160 kts 88°
2026-05-06 17:11 25.80236 -80.26374 725 ft 167 kts 89°
2026-05-06 17:11 25.80091 -80.25052 1163 ft 184 kts 110°
2026-05-06 17:11 25.79322 -80.23854 1596 ft 205 kts 143°
2026-05-06 17:11 25.78013 -80.23041 2066 ft 226 kts 151°
2026-05-06 17:12 25.76613 -80.22103 2675 ft 243 kts 143°
2026-05-06 17:12 25.75239 -80.20905 3366 ft 259 kts 139°
2026-05-06 17:12 25.73805 -80.19628 4190 ft 269 kts 148°
2026-05-06 17:12 25.72001 -80.19058 5030 ft 276 kts 176°
2026-05-06 17:13 25.70083 -80.18953 5934 ft 278 kts 179°
2026-05-06 17:13 25.68134 -80.18920 6829 ft 282 kts 181°
2026-05-06 17:13 25.66171 -80.19154 7678 ft 286 kts 189°
2026-05-06 17:13 25.64186 -80.19471 8515 ft 290 kts 188°
2026-05-06 17:14 25.62189 -80.19906 9334 ft 295 kts 198°
2026-05-06 17:14 25.60308 -80.20828 10119 ft 298 kts 211°
2026-05-06 17:14 25.58440 -80.22017 10424 ft 321 kts 211°
2026-05-06 17:14 25.56439 -80.23293 10782 ft 339 kts 211°
2026-05-06 17:15 25.54367 -80.24606 11400 ft 346 kts 211°
2026-05-06 17:15 25.52260 -80.25937 12055 ft 351 kts 211°
2026-05-06 17:15 25.50120 -80.27285 12705 ft 356 kts 212°
2026-05-06 17:15 25.47953 -80.28648 13348 ft 361 kts 212°
2026-05-06 17:16 25.45755 -80.30028 13974 ft 365 kts 212°
2026-05-06 17:16 25.43535 -80.31426 14583 ft 369 kts 212°
2026-05-06 17:16 25.41293 -80.32839 15172 ft 373 kts 212°
2026-05-06 17:16 25.39058 -80.34249 15747 ft 377 kts 212°
2026-05-06 17:17 25.36768 -80.35694 16311 ft 381 kts 212°
2026-05-06 17:17 25.34452 -80.37154 16874 ft 385 kts 212°
2026-05-06 17:17 25.32112 -80.38625 17425 ft 389 kts 212°
2026-05-06 17:17 25.29745 -80.40113 17949 ft 393 kts 213°
2026-05-06 17:18 25.27356 -80.41618 18468 ft 397 kts 213°
2026-05-06 17:18 25.24947 -80.43132 18999 ft 400 kts 212°
2026-05-06 17:18 25.22385 -80.44401 19525 ft 407 kts 201°
2026-05-06 17:18 25.19660 -80.45309 20053 ft 410 kts 199°
2026-05-06 17:19 25.16916 -80.46202 20576 ft 413 kts 199°
2026-05-06 17:19 25.14152 -80.47103 21067 ft 415 kts 199°
2026-05-06 17:19 25.11374 -80.48008 21556 ft 418 kts 199°
2026-05-06 17:19 25.08573 -80.48923 22021 ft 421 kts 199°
2026-05-06 17:20 25.05759 -80.49843 22473 ft 423 kts 199°
2026-05-06 17:20 25.02923 -80.50773 22925 ft 426 kts 200°
2026-05-06 17:20 25.00074 -80.51710 23378 ft 428 kts 200°
2026-05-06 17:20 24.97212 -80.52648 23813 ft 431 kts 200°
2026-05-06 17:21 24.94327 -80.53592 24211 ft 433 kts 200°
2026-05-06 17:21 24.91465 -80.54524 24606 ft 436 kts 200°
2026-05-06 17:21 24.88544 -80.55473 24985 ft 439 kts 200°
2026-05-06 17:21 24.85679 -80.56636 25344 ft 438 kts 209°
2026-05-06 17:22 24.83061 -80.58315 25697 ft 435 kts 220°
2026-05-06 17:22 24.80765 -80.60472 26052 ft 432 kts 230°
2026-05-06 17:22 24.78866 -80.63013 26402 ft 428 kts 240°
2026-05-06 17:22 24.77266 -80.65779 26757 ft 430 kts 243°
2026-05-06 17:23 24.75663 -80.68562 27093 ft 432 kts 242°
2026-05-06 17:23 24.74040 -80.71358 27438 ft 435 kts 242°
2026-05-06 17:23 24.72402 -80.74167 27779 ft 437 kts 242°
2026-05-06 17:23 24.70757 -80.76989 28046 ft 439 kts 242°
2026-05-06 17:24 24.69117 -80.79800 28105 ft 429 kts 242°
2026-05-06 17:24 24.67525 -80.82517 28108 ft 417 kts 243°
2026-05-06 17:24 24.65965 -80.85181 28109 ft 413 kts 243°
2026-05-06 17:25 24.62877 -80.90480 28109 ft 411 kts 243°
2026-05-06 17:25 24.59771 -80.95758 28110 ft 414 kts 238°
2026-05-06 17:25 24.57805 -80.98108 28109 ft 422 kts 225°
2026-05-06 17:26 24.55405 -80.99926 28110 ft 430 kts 212°
2026-05-06 17:26 24.52599 -81.01133 28109 ft 437 kts 197°
2026-05-06 17:26 24.49582 -81.01603 28103 ft 441 kts 184°
2026-05-06 17:27 24.43430 -81.01557 28095 ft 442 kts 182°
2026-05-06 17:27 24.37277 -81.01501 28092 ft 442 kts 182°
2026-05-06 17:28 24.31121 -81.01451 28090 ft 442 kts 182°
2026-05-06 17:28 24.24962 -81.01407 28090 ft 442 kts 182°
2026-05-06 17:29 24.18801 -81.01355 27910 ft 442 kts 182°
2026-05-06 17:29 24.15720 -81.01330 27661 ft 441 kts 182°
2026-05-06 17:29 24.12697 -81.01305 27412 ft 439 kts 181°
2026-05-06 17:29 24.09651 -81.01278 27151 ft 435 kts 182°
2026-05-06 17:30 24.06588 -81.01249 26690 ft 434 kts 181°
2026-05-06 17:30 24.03606 -81.01221 26232 ft 433 kts 182°
2026-05-06 17:30 24.00620 -81.01389 25821 ft 427 kts 191°
2026-05-06 17:30 23.97749 -81.02094 25402 ft 420 kts 201°
2026-05-06 17:31 23.95011 -81.03165 24980 ft 415 kts 203°
2026-05-06 17:31 23.92307 -81.04237 24570 ft 412 kts 203°
2026-05-06 17:31 23.89624 -81.05293 24165 ft 408 kts 203°
2026-05-06 17:31 23.86958 -81.06335 23743 ft 405 kts 202°
2026-05-06 17:32 23.84313 -81.07364 23317 ft 401 kts 202°
2026-05-06 17:32 23.81697 -81.08384 22878 ft 398 kts 202°
2026-05-06 17:32 23.79101 -81.09397 22444 ft 394 kts 202°
2026-05-06 17:32 23.76531 -81.10405 22018 ft 391 kts 202°
2026-05-06 17:33 23.73985 -81.11407 21584 ft 387 kts 202°
2026-05-06 17:33 23.71459 -81.12402 21153 ft 384 kts 202°
2026-05-06 17:33 23.68951 -81.13388 20713 ft 382 kts 202°
2026-05-06 17:33 23.66461 -81.14366 20277 ft 379 kts 202°
2026-05-06 17:34 23.64018 -81.15322 19850 ft 376 kts 202°
2026-05-06 17:34 23.61561 -81.16281 19418 ft 374 kts 201°
2026-05-06 17:34 23.59123 -81.17235 18988 ft 371 kts 201°
2026-05-06 17:34 23.56701 -81.18183 18561 ft 369 kts 201°
2026-05-06 17:35 23.54296 -81.19125 18130 ft 366 kts 201°
2026-05-06 17:35 23.51902 -81.20061 17693 ft 364 kts 201°
2026-05-06 17:35 23.49521 -81.20991 17265 ft 362 kts 201°
2026-05-06 17:36 23.44888 -81.23032 16416 ft 357 kts 205°
2026-05-06 17:36 23.42633 -81.24138 15993 ft 354 kts 206°
2026-05-06 17:36 23.40402 -81.25252 15572 ft 351 kts 206°
2026-05-06 17:36 23.38186 -81.26352 15153 ft 349 kts 206°
2026-05-06 17:37 23.35983 -81.27432 14732 ft 346 kts 206°
2026-05-06 17:37 23.33789 -81.28495 14314 ft 344 kts 205°
2026-05-06 17:37 23.31613 -81.29539 13926 ft 340 kts 205°
2026-05-06 17:37 23.29456 -81.30570 13517 ft 338 kts 205°
2026-05-06 17:38 23.27312 -81.31593 13074 ft 336 kts 205°
2026-05-06 17:38 23.25179 -81.32612 12664 ft 333 kts 205°
2026-05-06 17:38 23.23067 -81.33622 12260 ft 330 kts 205°
2026-05-06 17:38 23.20971 -81.34622 11854 ft 328 kts 205°
2026-05-06 17:39 23.18970 -81.35770 11447 ft 323 kts 216°
2026-05-06 17:39 23.17295 -81.37367 11048 ft 319 kts 230°
2026-05-06 17:39 23.16018 -81.39312 10643 ft 315 kts 240°
2026-05-06 17:39 23.14904 -81.41351 10243 ft 313 kts 240°
2026-05-06 17:40 23.13804 -81.43352 10022 ft 303 kts 240°
2026-05-06 17:40 23.12736 -81.45292 9753 ft 298 kts 239°
2026-05-06 17:40 23.11667 -81.47228 9210 ft 298 kts 239°
2026-05-06 17:40 23.10600 -81.49157 8721 ft 296 kts 239°
2026-05-06 17:41 23.09538 -81.51077 8157 ft 294 kts 239°
2026-05-06 17:41 23.08495 -81.52967 7512 ft 292 kts 239°
2026-05-06 17:41 23.07455 -81.54853 6927 ft 289 kts 239°
2026-05-06 17:41 23.06423 -81.56715 6361 ft 286 kts 239°
2026-05-06 17:42 23.05405 -81.58554 5792 ft 284 kts 239°
2026-05-06 17:42 23.04396 -81.60382 5238 ft 281 kts 239°
2026-05-06 17:42 23.03402 -81.62192 4718 ft 276 kts 239°
2026-05-06 17:42 23.02343 -81.63903 4321 ft 266 kts 224°
2026-05-06 17:43 23.00848 -81.64919 4197 ft 246 kts 195°
2026-05-06 17:43 22.99236 -81.65021 4079 ft 223 kts 167°
2026-05-06 17:43 22.97880 -81.64389 4017 ft 205 kts 145°
2026-05-06 17:43 22.96765 -81.63551 3965 ft 187 kts 144°
2026-05-06 17:44 22.95726 -81.62783 3835 ft 175 kts 145°
2026-05-06 17:44 22.94788 -81.61999 3719 ft 173 kts 133°
2026-05-06 17:44 22.94129 -81.60889 3566 ft 174 kts 111°
2026-05-06 17:44 22.93901 -81.59617 3316 ft 172 kts 89°
2026-05-06 17:45 22.94131 -81.58351 3110 ft 171 kts 68°
2026-05-06 17:45 22.94720 -81.57291 2908 ft 155 kts 55°
2026-05-06 17:45 22.95297 -81.56378 2717 ft 141 kts 56°
2026-05-06 17:45 22.95836 -81.55527 2522 ft 137 kts 55°
2026-05-06 17:46 22.96370 -81.54686 2350 ft 135 kts 55°
2026-05-06 17:46 22.96898 -81.53853 2171 ft 133 kts 54°
2026-05-06 17:46 22.97421 -81.53026 1999 ft 133 kts 54°
2026-05-06 17:46 22.97945 -81.52202 1822 ft 132 kts 54°
2026-05-06 17:47 22.98466 -81.51380 1647 ft 132 kts 53°
2026-05-06 17:47 22.98987 -81.50559 1470 ft 132 kts 54°
2026-05-06 17:47 22.99505 -81.49742 1300 ft 131 kts 54°
2026-05-06 17:47 23.00023 -81.48926 1122 ft 131 kts 53°
2026-05-06 17:48 23.00540 -81.48111 946 ft 131 kts 53°
2026-05-06 17:48 23.01055 -81.47297 768 ft 131 kts 53°
2026-05-06 17:48 23.01571 -81.46483 599 ft 131 kts 53°
2026-05-06 17:48 23.02088 -81.45671 425 ft 131 kts 54°
2026-05-06 17:49 23.02606 -81.44859 239 ft 130 kts 54°
2026-05-06 17:49 23.03076 -81.44122 206 ft 98 kts 55°
2026-05-06 17:49 23.03300 -81.43766 206 ft 34 kts 56°
2026-05-06 17:49 23.03378 -81.43644 206 ft 26 kts 53°
2026-05-06 17:50 23.03492 -81.43607 207 ft 14 kts 355°
2026-05-06 17:50 23.03532 -81.43611 208 ft 0 kts 355°
2026-05-06 17:50 23.03543 -81.43612 208 ft 3 kts 355°
2026-05-06 17:50 23.03575 -81.43615 208 ft 6 kts 356°
2026-05-06 17:51 23.03619 -81.43618 214 ft 7 kts 357°
2026-05-06 17:51 23.03678 -81.43616 208 ft 10 kts 16°
2026-05-06 17:51 23.03740 -81.43585 208 ft 11 kts 345°
2026-05-06 17:51 23.03793 -81.43618 208 ft 7 kts 326°
2026-05-06 17:52 23.03822 -81.43639 208 ft 4 kts 327°
2026-05-06 17:52 23.03826 -81.43642 215 ft 0 kts 327°